• Em Portugal
  • Lista de países
  • Para 7 dias
  • Temperatura da água
  • Mapas de satélite
  • Mapa do tempo
  • Widgets de tempo
  • user-avatar
    Iniciar Sessão

    Previsão horária em Khulna

    Hoje, 22 Janeiro, Segunda-feira

    Tempo Temperatura Precipitação Vento Pressão Humidade
    00:00 +20°C° 0 mm 1 m/s 758 mmHg 39%
    01:00 +20°C° 0 mm 1 m/s 758 mmHg 40%
    02:00 +18°C° 0 mm 2 m/s 758 mmHg 41%
    03:00 +18°C° 0 mm 2 m/s 758 mmHg 42%
    04:00 +17°C° 0 mm 2 m/s 758 mmHg 43%
    05:00 +17°C° 0 mm 2 m/s 758 mmHg 45%
    06:00 +16°C° 0 mm 2 m/s 758 mmHg 47%
    07:00 +18°C° 0 mm 2 m/s 759 mmHg 44%
    08:00 +19°C° 0 mm 2 m/s 759 mmHg 40%
    09:00 +21°C° 0 mm 2 m/s 760 mmHg 37%
    10:00 +24°C° 0 mm 2 m/s 759 mmHg 32%
    11:00 +26°C° 0 mm 3 m/s 759 mmHg 26%
    12:00 +27°C° 0 mm 3 m/s 759 mmHg 21%
    13:00 +28°C° 0 mm 3 m/s 758 mmHg 20%
    14:00 +28°C° 0 mm 3 m/s 758 mmHg 18%
    15:00 +29°C° 0 mm 3 m/s 757 mmHg 16%
    16:00 +27°C° 0 mm 3 m/s 757 mmHg 19%
    17:00 +26°C° 0 mm 2 m/s 757 mmHg 21%
    18:00 +24°C° 0 mm 1 m/s 757 mmHg 27%
    19:00 +23°C° 0 mm 1 m/s 757 mmHg 28%
    20:00 +22°C° 0 mm 1 m/s 758 mmHg 29%
    21:00 +20°C° 0 mm 2 m/s 758 mmHg 30%
    22:00 +21°C° 0 mm 1 m/s 758 mmHg 31%
    23:00 +20°C° 0 mm 1 m/s 758 mmHg 31%

    Amanhã, 23 Janeiro, Terça-feira

    Tempo Temperatura Precipitação Vento Pressão Humidade
    00:00 +20°C° 0 mm 1 m/s 758 mmHg 32%
    01:00 +19°C° 0 mm 1 m/s 758 mmHg 32%
    02:00 +19°C° 0 mm 1 m/s 757 mmHg 33%
    03:00 +19°C° 0 mm 1 m/s 757 mmHg 34%
    04:00 +18°C° 0 mm 1 m/s 757 mmHg 35%
    05:00 +18°C° 0 mm 1 m/s 757 mmHg 36%
    06:00 +18°C° 0 mm 1 m/s 757 mmHg 37%
    07:00 +18°C° 0 mm 2 m/s 758 mmHg 35%
    08:00 +20°C° 0 mm 2 m/s 758 mmHg 33%
    09:00 +23°C° 0 mm 2 m/s 759 mmHg 32%
    10:00 +25°C° 0 mm 2 m/s 758 mmHg 30%
    11:00 +26°C° 0 mm 2 m/s 758 mmHg 27%
    12:00 +28°C° 0 mm 2 m/s 758 mmHg 25%
    13:00 +29°C° 0 mm 2 m/s 757 mmHg 24%
    14:00 +29°C° 0 mm 2 m/s 757 mmHg 22%
    15:00 +30°C° 0 mm 2 m/s 756 mmHg 20%
    16:00 +28°C° 0 mm 2 m/s 756 mmHg 22%
    17:00 +27°C° 0 mm 1 m/s 756 mmHg 24%
    18:00 +25°C° 0 mm 1 m/s 756 mmHg 26%
    19:00 +24°C° 0 mm 1 m/s 756 mmHg 28%
    20:00 +23°C° 0 mm 1 m/s 756 mmHg 31%
    21:00 +22°C° 0 mm 1 m/s 757 mmHg 33%
    22:00 +22°C° 0 mm 1 m/s 757 mmHg 35%
    23:00 +21°C° 0 mm 1 m/s 757 mmHg 37%

    Depois de amanhã, 24 Janeiro, Quarta-feira

    Tempo Temperatura Precipitação Vento Pressão Humidade
    00:00 +20°C° 0 mm 1 m/s 757 mmHg 39%
    01:00 +20°C° 0 mm 1 m/s 757 mmHg 39%
    02:00 +18°C° 0 mm 0 m/s 757 mmHg 40%
    03:00 +17°C° 0 mm 0 m/s 756 mmHg 40%
    04:00 +17°C° 0 mm 0 m/s 756 mmHg 40%
    05:00 +17°C° 0 mm 0 m/s 756 mmHg 41%
    06:00 +16°C° 0 mm 0 m/s 756 mmHg 41%
    07:00 +18°C° 0 mm 0 m/s 757 mmHg 38%
    08:00 +20°C° 0 mm 0 m/s 758 mmHg 35%
    09:00 +22°C° 0 mm 0 m/s 758 mmHg 31%
    10:00 +24°C° 0 mm 0 m/s 758 mmHg 28%
    11:00 +29°C° 0 mm 1 m/s 758 mmHg 25%
    12:00 +31°C° 0 mm 1 m/s 757 mmHg 21%
    13:00 +31°C° 0 mm 1 m/s 756 mmHg 21%
    14:00 +31°C° 0 mm 1 m/s 756 mmHg 20%
    15:00 +32°C° 0 mm 1 m/s 755 mmHg 19%
    16:00 +30°C° 0 mm 1 m/s 755 mmHg 22%
    17:00 +29°C° 0 mm 1 m/s 755 mmHg 26%
    18:00 +27°C° 0 mm 1 m/s 755 mmHg 29%
    19:00 +26°C° 0 mm 2 m/s 755 mmHg 36%
    20:00 +25°C° 0 mm 2 m/s 755 mmHg 43%
    21:00 +24°C° 0 mm 3 m/s 756 mmHg 50%
    22:00 +22°C° 0 mm 3 m/s 756 mmHg 55%
    23:00 +23°C° 0 mm 2 m/s 756 mmHg 60%

    25 Janeiro, Quinta-feira

    Tempo Temperatura Precipitação Vento Pressão Humidade
    00:00 +21°C° 0 mm 2 m/s 756 mmHg 65%
    01:00 +21°C° 0 mm 2 m/s 756 mmHg 66%
    02:00 +21°C° 0 mm 2 m/s 756 mmHg 67%
    03:00 +20°C° 0 mm 2 m/s 755 mmHg 68%
    04:00 +20°C° 0 mm 2 m/s 755 mmHg 65%
    05:00 +20°C° 0 mm 2 m/s 756 mmHg 61%
    06:00 +19°C° 0 mm 2 m/s 756 mmHg 58%
    07:00 +20°C° 0 mm 3 m/s 756 mmHg 53%
    08:00 +22°C° 0 mm 3 m/s 757 mmHg 47%
    09:00 +24°C° 0 mm 3 m/s 758 mmHg 42%
    10:00 +26°C° 0 mm 3 m/s 758 mmHg 37%
    11:00 +28°C° 0 mm 3 m/s 758 mmHg 33%
    12:00 +29°C° 0 mm 3 m/s 757 mmHg 28%
    13:00 +30°C° 0 mm 3 m/s 756 mmHg 27%
    14:00 +30°C° 0 mm 3 m/s 756 mmHg 25%
    15:00 +31°C° 0 mm 3 m/s 755 mmHg 24%
    16:00 +29°C° 0 mm 3 m/s 755 mmHg 26%
    17:00 +28°C° 0 mm 3 m/s 755 mmHg 29%
    18:00 +26°C° 0 mm 2 m/s 755 mmHg 31%
    19:00 +25°C° 0 mm 2 m/s 756 mmHg 33%
    20:00 +24°C° 0 mm 2 m/s 756 mmHg 36%
    21:00 +23°C° 0 mm 2 m/s 757 mmHg 38%
    22:00 +23°C° 0 mm 2 m/s 757 mmHg 40%
    23:00 +21°C° 0 mm 2 m/s 757 mmHg 41%

    26 Janeiro, Sexta-feira

    Tempo Temperatura Precipitação Vento Pressão Humidade
    00:00 +21°C° 0 mm 2 m/s 757 mmHg 43%
    01:00 +20°C° 0 mm 2 m/s 756 mmHg 45%
    02:00 +20°C° 0 mm 2 m/s 756 mmHg 47%
    03:00 +19°C° 0 mm 2 m/s 756 mmHg 49%
    04:00 +19°C° 0 mm 2 m/s 756 mmHg 52%
    05:00 +18°C° 0 mm 2 m/s 756 mmHg 55%
    06:00 +18°C° 0 mm 2 m/s 757 mmHg 57%
    07:00 +19°C° 0 mm 3 m/s 757 mmHg 54%
    08:00 +21°C° 0 mm 3 m/s 758 mmHg 51%
    09:00 +22°C° 0 mm 3 m/s 759 mmHg 47%
    10:00 +25°C° 0 mm 3 m/s 759 mmHg 41%
    11:00 +27°C° 0 mm 3 m/s 758 mmHg 35%
    12:00 +29°C° 0 mm 3 m/s 758 mmHg 30%
    13:00 +29°C° 0 mm 4 m/s 757 mmHg 28%
    14:00 +29°C° 0 mm 4 m/s 756 mmHg 26%
    15:00 +30°C° 0 mm 4 m/s 756 mmHg 24%
    16:00 +28°C° 0 mm 4 m/s 756 mmHg 27%
    17:00 +27°C° 0 mm 3 m/s 756 mmHg 30%
    18:00 +25°C° 0 mm 2 m/s 756 mmHg 33%
    19:00 +24°C° 0 mm 2 m/s 756 mmHg 35%
    20:00 +23°C° 0 mm 2 m/s 757 mmHg 37%
    21:00 +23°C° 0 mm 2 m/s 757 mmHg 39%
    22:00 +21°C° 0 mm 2 m/s 757 mmHg 40%
    23:00 +20°C° 0 mm 2 m/s 757 mmHg 42%

    27 Janeiro, Sábado

    Tempo Temperatura Precipitação Vento Pressão Humidade
    00:00 +21°C° 0 mm 1 m/s 757 mmHg 43%
    01:00 +19°C° 0 mm 2 m/s 757 mmHg 45%
    02:00 +19°C° 0 mm 2 m/s 757 mmHg 47%
    03:00 +18°C° 0 mm 2 m/s 757 mmHg 49%
    04:00 +18°C° 0 mm 2 m/s 757 mmHg 51%
    05:00 +18°C° 0 mm 2 m/s 757 mmHg 54%
    06:00 +18°C° 0 mm 1 m/s 757 mmHg 56%
    07:00 +19°C° 0 mm 2 m/s 758 mmHg 52%
    08:00 +20°C° 0 mm 2 m/s 759 mmHg 48%
    09:00 +23°C° 0 mm 2 m/s 759 mmHg 45%
    10:00 +25°C° 0 mm 2 m/s 759 mmHg 39%
    11:00 +27°C° 0 mm 3 m/s 759 mmHg 34%
    12:00 +28°C° 0 mm 3 m/s 759 mmHg 28%
    13:00 +29°C° 0 mm 3 m/s 758 mmHg 26%
    14:00 +29°C° 0 mm 4 m/s 757 mmHg 24%
    15:00 +30°C° 0 mm 4 m/s 756 mmHg 22%
    16:00 +28°C° 0 mm 4 m/s 756 mmHg 23%
    17:00 +26°C° 0 mm 3 m/s 756 mmHg 25%
    18:00 +25°C° 0 mm 2 m/s 756 mmHg 27%
    19:00 +24°C° 0 mm 2 m/s 757 mmHg 28%
    20:00 +23°C° 0 mm 1 m/s 757 mmHg 29%
    21:00 +22°C° 0 mm 1 m/s 758 mmHg 30%
    22:00 +21°C° 0 mm 1 m/s 758 mmHg 30%
    23:00 +21°C° 0 mm 1 m/s 758 mmHg 31%
    Mostrar mais